Location: Observatory
(52.1446°N, 0.4624°W)
Time: 22:37:34
(UTC+00:00)

ISS - Pass Details

Date: 05 January 2018
Orbit: 402 x 407 km, 51.6° (Epoch: 22 January)

Event Time Altitude Azimuth Distance (km) Brightness Sun altitude
Exits shadow 05:03:26 22° 90° (E) 959 -1.2 -27.3°
Drops below altitude 10° 05:04:45 10° 84° (E) 1,471 0.0 -27.1°
Sets 05:06:52 0° 80° (E) 2,334 1.2 -26.8°
